When you browse on this site, cookies collect data to enhance your experience and personalize the content and advertising you see.
Visit our Privacy Policy to learn more. By continuing to use the site, you agree to this use of cookies and data.
  • In Deutschland
  • Länderverzeichnis
  • Für 7 Tage
  • Wassertemperatur
  • Wetterkarte
  • Widgets
  • user-avatar
    Anmelden

    Stündliche Wetter Herāt

    Heute, 19 November, Dienstag

    Zeit Temperatur Niederschläge Wind Luftdruck Luftfeuchtigkeit
    00:00 +10°C° 0 mm 1 m/S 682 mmHg 36%
    01:00 +10°C° 0 mm 1 m/S 682 mmHg 37%
    02:00 +9°C° 0 mm 1 m/S 682 mmHg 38%
    03:00 +9°C° 0 mm 1 m/S 682 mmHg 38%
    04:00 +8°C° 0 mm 0 m/S 681 mmHg 38%
    05:00 +8°C° 0 mm 0 m/S 682 mmHg 38%
    06:00 +8°C° 0 mm 0 m/S 682 mmHg 39%
    07:00 +8°C° 0 mm 0 m/S 682 mmHg 39%
    08:00 +11°C° 0 mm 1 m/S 682 mmHg 35%
    09:00 +12°C° 0 mm 1 m/S 682 mmHg 32%
    10:00 +13°C° 0 mm 1 m/S 682 mmHg 28%
    11:00 +14°C° 0 mm 1 m/S 682 mmHg 27%
    12:00 +15°C° 0 mm 1 m/S 682 mmHg 25%
    13:00 +16°C° 0 mm 1 m/S 681 mmHg 23%
    14:00 +16°C° 0 mm 1 m/S 681 mmHg 24%
    15:00 +16°C° 0 mm 1 m/S 681 mmHg 24%
    16:00 +16°C° 0 mm 1 m/S 681 mmHg 25%
    17:00 +15°C° 0 mm 1 m/S 681 mmHg 28%
    18:00 +14°C° 0 mm 1 m/S 680 mmHg 31%
    19:00 +13°C° 0 mm 1 m/S 680 mmHg 34%
    20:00 +12°C° 0 mm 1 m/S 680 mmHg 35%
    21:00 +12°C° 0 mm 1 m/S 680 mmHg 36%
    22:00 +10°C° 0 mm 0 m/S 680 mmHg 37%
    23:00 +10°C° 0 mm 0 m/S 680 mmHg 37%

    Morgen, 20 November, Mittwoch

    Zeit Temperatur Niederschläge Wind Luftdruck Luftfeuchtigkeit
    00:00 +10°C° 0 mm 0 m/S 679 mmHg 37%
    01:00 +10°C° 0 mm 0 m/S 679 mmHg 37%
    02:00 +11°C° 0 mm 1 m/S 679 mmHg 37%
    03:00 +11°C° 0 mm 1 m/S 679 mmHg 37%
    04:00 +11°C° 0 mm 1 m/S 679 mmHg 37%
    05:00 +11°C° 0.3 mm 1 m/S 679 mmHg 44%
    06:00 +9°C° 0.3 mm 2 m/S 679 mmHg 52%
    07:00 +9°C° 0.3 mm 2 m/S 679 mmHg 60%
    08:00 +10°C° 0 mm 2 m/S 680 mmHg 58%
    09:00 +12°C° 0 mm 1 m/S 680 mmHg 57%
    10:00 +12°C° 0 mm 1 m/S 680 mmHg 55%
    11:00 +14°C° 0.1 mm 1 m/S 680 mmHg 52%
    12:00 +15°C° 0.1 mm 1 m/S 679 mmHg 48%
    13:00 +16°C° 0.1 mm 1 m/S 679 mmHg 44%
    14:00 +16°C° 0 mm 2 m/S 679 mmHg 44%
    15:00 +16°C° 0 mm 2 m/S 679 mmHg 43%
    16:00 +16°C° 0 mm 3 m/S 679 mmHg 42%
    17:00 +15°C° 0 mm 2 m/S 679 mmHg 47%
    18:00 +14°C° 0 mm 2 m/S 679 mmHg 52%
    19:00 +13°C° 0 mm 2 m/S 679 mmHg 57%
    20:00 +12°C° 0 mm 2 m/S 679 mmHg 60%
    21:00 +10°C° 0 mm 2 m/S 679 mmHg 62%
    22:00 +10°C° 0 mm 3 m/S 679 mmHg 65%
    23:00 +9°C° 0.1 mm 3 m/S 679 mmHg 66%

    übermorgen, 21 November, Donnerstag

    Zeit Temperatur Niederschläge Wind Luftdruck Luftfeuchtigkeit
    00:00 +9°C° 0.1 mm 3 m/S 678 mmHg 68%
    01:00 +8°C° 0.1 mm 3 m/S 678 mmHg 69%
    02:00 +8°C° 0.5 mm 3 m/S 678 mmHg 72%
    03:00 +7°C° 0.5 mm 2 m/S 678 mmHg 74%
    04:00 +7°C° 0.5 mm 2 m/S 677 mmHg 77%
    05:00 +7°C° 0.7 mm 2 m/S 678 mmHg 78%
    06:00 +7°C° 0.7 mm 2 m/S 678 mmHg 79%
    07:00 +7°C° 0.7 mm 2 m/S 678 mmHg 80%
    08:00 +7°C° 0.5 mm 2 m/S 678 mmHg 80%
    09:00 +7°C° 0.5 mm 3 m/S 678 mmHg 80%
    10:00 +5°C° 0.5 mm 3 m/S 678 mmHg 81%
    11:00 +5°C° 1.8 mm 4 m/S 678 mmHg 82%
    12:00 +4°C° 1.8 mm 4 m/S 678 mmHg 84%
    13:00 +3°C° 1.8 mm 5 m/S 678 mmHg 85%
    14:00 +3°C° 3.4 mm 4 m/S 678 mmHg 87%
    15:00 +3°C° 3.4 mm 3 m/S 678 mmHg 89%
    16:00 +2°C° 3.4 mm 3 m/S 678 mmHg 90%
    17:00 +2°C° 1.8 mm 3 m/S 678 mmHg 89%
    18:00 +2°C° 1.8 mm 3 m/S 679 mmHg 88%
    19:00 +2°C° 1.8 mm 3 m/S 680 mmHg 86%
    20:00 +2°C° 0.2 mm 3 m/S 680 mmHg 88%
    21:00 +1°C° 0.2 mm 4 m/S 681 mmHg 89%
    22:00 0°C° 0.2 mm 4 m/S 681 mmHg 91%
    23:00 +1°C° 0.1 mm 3 m/S 682 mmHg 89%

    22 November, Freitag

    Zeit Temperatur Niederschläge Wind Luftdruck Luftfeuchtigkeit
    00:00 +1°C° 0.1 mm 3 m/S 682 mmHg 87%
    01:00 +2°C° 0.1 mm 2 m/S 682 mmHg 86%
    02:00 +2°C° 0 mm 2 m/S 682 mmHg 85%
    03:00 +2°C° 0 mm 2 m/S 682 mmHg 84%
    04:00 +3°C° 0 mm 1 m/S 683 mmHg 83%
    05:00 +3°C° 0 mm 1 m/S 683 mmHg 82%
    06:00 +3°C° 0 mm 1 m/S 683 mmHg 81%
    07:00 +3°C° 0 mm 1 m/S 683 mmHg 80%
    08:00 +3°C° 0 mm 1 m/S 684 mmHg 78%
    09:00 +4°C° 0 mm 1 m/S 684 mmHg 76%
    10:00 +5°C° 0 mm 1 m/S 684 mmHg 74%
    11:00 +5°C° 0 mm 2 m/S 684 mmHg 72%
    12:00 +5°C° 0 mm 2 m/S 684 mmHg 70%
    13:00 +6°C° 0 mm 2 m/S 683 mmHg 69%
    14:00 +6°C° 0 mm 2 m/S 683 mmHg 69%
    15:00 +6°C° 0 mm 2 m/S 683 mmHg 69%
    16:00 +6°C° 0 mm 2 m/S 683 mmHg 70%
    17:00 +5°C° 0 mm 2 m/S 683 mmHg 72%
    18:00 +4°C° 0 mm 2 m/S 683 mmHg 74%
    19:00 +4°C° 0 mm 2 m/S 683 mmHg 76%
    20:00 +4°C° 0 mm 2 m/S 684 mmHg 77%
    21:00 +3°C° 0 mm 2 m/S 684 mmHg 77%
    22:00 +4°C° 0 mm 1 m/S 684 mmHg 78%
    23:00 +4°C° 0 mm 1 m/S 684 mmHg 78%

    23 November, Samstag

    Zeit Temperatur Niederschläge Wind Luftdruck Luftfeuchtigkeit
    00:00 +4°C° 0 mm 1 m/S 684 mmHg 79%
    01:00 +3°C° 0 mm 1 m/S 684 mmHg 80%
    02:00 +3°C° 0 mm 1 m/S 684 mmHg 80%
    03:00 +3°C° 0 mm 1 m/S 684 mmHg 81%
    04:00 +3°C° 0 mm 1 m/S 683 mmHg 82%
    05:00 +3°C° 0 mm 1 m/S 684 mmHg 82%
    06:00 +3°C° 0 mm 1 m/S 684 mmHg 82%
    07:00 +3°C° 0 mm 1 m/S 684 mmHg 82%
    08:00 +4°C° 0 mm 1 m/S 685 mmHg 78%
    09:00 +5°C° 0 mm 1 m/S 685 mmHg 75%
    10:00 +6°C° 0 mm 1 m/S 685 mmHg 72%
    11:00 +6°C° 0 mm 1 m/S 685 mmHg 70%
    12:00 +7°C° 0 mm 1 m/S 684 mmHg 67%
    13:00 +8°C° 0 mm 1 m/S 684 mmHg 65%
    14:00 +8°C° 0 mm 1 m/S 684 mmHg 64%
    15:00 +8°C° 0 mm 1 m/S 684 mmHg 64%
    16:00 +6°C° 0 mm 2 m/S 684 mmHg 64%
    17:00 +6°C° 0 mm 2 m/S 684 mmHg 66%
    18:00 +5°C° 0 mm 2 m/S 685 mmHg 69%
    19:00 +5°C° 0 mm 2 m/S 685 mmHg 71%
    20:00 +4°C° 0 mm 2 m/S 685 mmHg 71%
    21:00 +4°C° 0 mm 2 m/S 685 mmHg 72%
    22:00 +3°C° 0 mm 2 m/S 685 mmHg 73%
    23:00 +3°C° 0 mm 2 m/S 685 mmHg 73%

    24 November, Sonntag

    Zeit Temperatur Niederschläge Wind Luftdruck Luftfeuchtigkeit
    00:00 +2°C° 0 mm 2 m/S 685 mmHg 73%
    01:00 +2°C° 0 mm 2 m/S 685 mmHg 73%
    02:00 +1°C° 0 mm 2 m/S 685 mmHg 73%
    03:00 +1°C° 0 mm 2 m/S 685 mmHg 73%
    04:00 +1°C° 0 mm 2 m/S 685 mmHg 73%
    05:00 +1°C° 0 mm 2 m/S 685 mmHg 73%
    06:00 +1°C° 0 mm 2 m/S 685 mmHg 73%
    07:00 -1°C° 0 mm 2 m/S 685 mmHg 73%
    08:00 +1°C° 0 mm 2 m/S 685 mmHg 69%
    09:00 +3°C° 0 mm 1 m/S 685 mmHg 65%
    10:00 +4°C° 0 mm 1 m/S 686 mmHg 62%
    11:00 +5°C° 0 mm 1 m/S 685 mmHg 60%
    12:00 +6°C° 0 mm 1 m/S 685 mmHg 58%
    13:00 +6°C° 0 mm 2 m/S 684 mmHg 56%
    14:00 +6°C° 0 mm 2 m/S 684 mmHg 58%
    15:00 +5°C° 0 mm 2 m/S 684 mmHg 60%
    16:00 +5°C° 0 mm 2 m/S 684 mmHg 62%
    17:00 +4°C° 0 mm 2 m/S 684 mmHg 63%
    18:00 +4°C° 0 mm 2 m/S 684 mmHg 65%
    19:00 +3°C° 0 mm 2 m/S 684 mmHg 66%
    20:00 +3°C° 0 mm 2 m/S 684 mmHg 67%
    21:00 +3°C° 0 mm 2 m/S 683 mmHg 68%
    22:00 +2°C° 0 mm 2 m/S 683 mmHg 68%
    23:00 +2°C° 0 mm 2 m/S 683 mmHg 69%
    Mehr zeigen